| time (UTC) | temp F | wind direction | speed MPH | gust MPH | rain 1hr in | rain 24hr in | rain mn in | humidity % | barometer mb |
| 20260505130153 | 0 | 191 | 0.0 | 0.0 | 0.05 | 0.01 | 0.01 | 1022.9 | |
| 20260505124643 | 0 | 180 | 7.0 | 10.0 | 0.00 | 0.00 | 0.00 | 1022.8 | |
| 20260505124140 | 0 | 136 | 6.0 | 8.0 | 0.00 | 0.00 | 0.00 | 1022.7 | |
| 20260505123636 | 0 | 175 | 3.0 | 3.0 | 0.00 | 0.00 | 0.00 | 1022.9 | |
| 20260505123133 | 0 | 191 | 4.0 | 7.0 | 0.00 | 0.00 | 0.00 | 1022.7 | |
| 20260505122628 | 0 | 157 | 6.0 | 8.0 | 0.00 | 0.00 | 0.00 | 1022.6 | |
| 20260505122126 | 0 | 95 | 5.0 | 7.0 | 0.00 | 0.00 | 0.00 | 1022.7 | |
| 20260505121617 | 0 | 165 | 4.0 | 6.0 | 0.00 | 0.00 | 0.00 | 1022.6 | |
| 20260505121114 | 0 | 155 | 2.0 | 5.0 | 0.00 | 0.00 | 0.00 | 1022.7 | |
| 20260505120610 | 0 | 178 | 1.0 | 3.0 | 0.00 | 0.00 | 0.00 | 1022.5 | |
| 20260505120106 | 0 | 164 | 5.0 | 7.0 | 0.00 | 0.00 | 0.00 | 1022.6 | |
| 20260505115601 | 0 | 171 | 0.0 | 0.0 | 0.00 | 0.00 | 0.00 | 1022.4 | |
| 20260505115058 | 0 | 103 | 3.0 | 5.0 | 0.00 | 0.00 | 0.00 | 1022.3 | |
| 20260505114555 | 0 | 151 | 0.0 | 0.0 | 0.00 | 0.00 | 0.00 | 1022.3 | |
| 20260505114051 | 0 | 121 | 2.0 | 3.0 | 0.00 | 0.00 | 0.00 | 1022.3 | |
| 20260505113547 | 0 | 110 | 3.0 | 5.0 | 0.00 | 0.00 | 0.00 | 1022.4 | |
| 20260505113044 | 0 | 112 | 0.0 | 0.0 | 0.00 | 0.00 | 0.00 | 1022.3 | |
| 20260505112540 | 0 | 152 | 0.0 | 0.0 | 0.00 | 0.00 | 0.00 | 1022.1 | |
| 20260505112038 | 0 | 139 | 0.0 | 0.0 | 0.00 | 0.00 | 0.00 | 1022.3 | |
| 20260505111532 | 0 | 200 | 0.0 | 0.0 | 0.00 | 0.00 | 0.00 | 1022.2 | |
| 20260505111029 | 0 | 215 | 0.0 | 0.0 | 0.00 | 0.00 | 0.00 | 1022.0 | |
| 20260505110525 | 0 | 267 | 0.0 | 0.0 | 0.00 | 0.00 | 0.00 | 1022.2 | |
| 20260505101952 | 0 | 290 | 0.0 | 0.0 | 0.00 | 0.00 | 0.00 | 1021.5 | |
| 20260505101450 | 0 | 274 | 0.0 | 0.0 | 0.00 | 0.00 | 0.00 | 1021.3 | |
| 20260505100946 | 0 | 277 | 0.0 | 0.0 | 0.00 | 0.00 | 0.00 | 1021.5 | |
| 20260505100444 | 0 | 250 | 0.0 | 0.0 | 0.00 | 0.00 | 0.00 | 1021.4 | |
| 20260505095939 | 0 | 264 | 0.0 | 0.0 | 0.00 | 0.00 | 0.00 | 1021.3 | |
| 20260505095436 | 0 | 240 | 0.0 | 0.0 | 0.00 | 0.00 | 0.00 | 1021.4 | |
| 20260505094932 | 0 | 275 | 0.0 | 0.0 | 0.00 | 0.00 | 0.00 | 1021.4 | |
| 20260505094429 | 0 | 263 | 0.0 | 0.0 | 0.00 | 0.00 | 0.00 | 1021.0 | |
| 20260505093926 | 0 | 284 | 0.0 | 0.0 | 0.00 | 0.00 | 0.00 | 1021.0 | |
| 20260505093423 | 0 | 259 | 0.0 | 0.0 | 0.00 | 0.00 | 0.00 | 1020.9 | |
| 20260505092920 | 0 | 268 | 0.0 | 0.0 | 0.00 | 0.00 | 0.00 | 1021.1 | |
| 20260505092418 | 0 | 293 | 0.0 | 0.0 | 0.00 | 0.00 | 0.00 | 1021.2 | |
| 20260505091915 | 0 | 267 | 0.0 | 0.0 | 0.00 | 0.00 | 0.00 | 1021.0 | |
| 20260505091412 | 0 | 256 | 0.0 | 0.0 | 0.00 | 0.00 | 0.00 | 1021.1 | |
| 20260505090910 | 0 | 278 | 0.0 | 0.0 | 0.00 | 0.00 | 0.00 | 1021.1 | |
| 20260505090408 | 0 | 276 | 0.0 | 0.0 | 0.00 | 0.00 | 0.00 | 1021.0 | |
| 20260505085905 | 0 | 261 | 0.0 | 0.0 | 0.00 | 0.00 | 0.00 | 1021.2 | |
| 20260505085403 | 0 | 269 | 0.0 | 0.0 | 0.00 | 0.00 | 0.00 | 1020.8 | |
| 20260505084901 | 0 | 268 | 0.0 | 0.0 | 0.00 | 0.00 | 0.00 | 1020.8 | |
| 20260505084359 | 0 | 257 | 1.0 | 2.0 | 0.00 | 0.00 | 0.00 | 1020.9 | |
| 20260505083856 | 0 | 276 | 0.0 | 0.0 | 0.00 | 0.00 | 0.00 | 1020.6 | |
| 20260505083354 | 0 | 273 | 0.0 | 0.0 | 0.00 | 0.00 | 0.00 | 1020.6 | |
| 20260505082850 | 0 | 286 | 0.0 | 0.0 | 0.00 | 0.00 | 0.00 | 1020.8 | |
| 20260505082346 | 0 | 273 | 0.0 | 0.0 | 0.00 | 0.00 | 0.00 | 1020.7 | |
| 20260505081843 | 0 | 269 | 0.0 | 0.0 | 0.00 | 0.00 | 0.00 | 1020.8 | |
| 20260505081340 | 0 | 270 | 0.0 | 0.0 | 0.00 | 0.00 | 0.00 | 1020.6 | |
| 20260505080836 | 0 | 270 | 0.0 | 0.0 | 0.00 | 0.00 | 0.00 | 1020.7 | |
| 20260505080332 | 0 | 259 | 0.0 | 0.0 | 0.00 | 0.00 | 0.00 | 1020.3 | |
| 20260505075827 | 0 | 253 | 0.0 | 0.0 | 0.00 | 0.00 | 0.00 | 1020.5 | |
| 20260505075325 | 0 | 273 | 0.0 | 0.0 | 0.00 | 0.00 | 0.00 | 1020.5 | |
| 20260505074822 | 0 | 255 | 0.0 | 0.0 | 0.00 | 0.00 | 0.00 | 1020.5 | |
| 20260505074319 | 0 | 278 | 0.0 | 0.0 | 0.00 | 0.00 | 0.00 | 1020.3 | |
| 20260505073817 | 0 | 274 | 0.0 | 0.0 | 0.00 | 0.00 | 0.00 | 1020.6 | |
| 20260505073315 | 0 | 272 | 0.0 | 0.0 | 0.00 | 0.00 | 0.00 | 1020.6 | |
| 20260505072811 | 0 | 270 | 0.0 | 0.0 | 0.00 | 0.00 | 0.00 | 1020.5 | |
| 20260505072307 | 0 | 272 | 0.0 | 0.0 | 0.00 | 0.00 | 0.00 | 1020.7 | |
| 20260505071803 | 0 | 270 | 0.0 | 0.0 | 0.00 | 0.00 | 0.00 | 1020.6 | |
| 20260505071300 | 0 | 265 | 0.0 | 0.0 | 0.00 | 0.00 | 0.00 | 1020.6 | |
| 20260505070758 | 0 | 286 | 0.0 | 0.0 | 0.00 | 0.00 | 0.00 | 1020.4 | |
| 20260505070254 | 0 | 264 | 0.0 | 0.0 | 0.00 | 0.00 | 0.00 | 1020.6 | |
| 20260505065749 | 0 | 264 | 0.0 | 0.0 | 0.00 | 0.00 | 0.00 | 1020.7 | |
| 20260505065246 | 0 | 275 | 0.0 | 0.0 | 0.00 | 0.00 | 0.00 | 1020.5 | |
| 20260505064744 | 0 | 265 | 0.0 | 0.0 | 0.00 | 0.00 | 0.00 | 1020.5 | |
| 20260505064241 | 0 | 270 | 0.0 | 0.0 | 0.00 | 0.00 | 0.00 | 1020.7 | |
| 20260505063738 | 0 | 276 | 0.0 | 0.0 | 0.00 | 0.00 | 0.00 | 1020.7 | |
| 20260505063235 | 0 | 273 | 0.0 | 0.0 | 0.00 | 0.00 | 0.00 | 1020.7 | |
| 20260505062731 | 0 | 273 | 0.0 | 0.0 | 0.00 | 0.00 | 0.00 | 1020.7 | |
| 20260505062229 | 0 | 285 | 0.0 | 0.0 | 0.00 | 0.00 | 0.00 | 1020.7 | |
| 20260505061725 | 0 | 265 | 0.0 | 0.0 | 0.00 | 0.00 | 0.00 | 1020.7 | |
| 20260505061224 | 0 | 256 | 0.0 | 0.0 | 0.00 | 0.00 | 0.00 | 1020.8 | |
| 20260505060721 | 0 | 281 | 0.0 | 0.0 | 0.00 | 0.00 | 0.00 | 1020.7 | |
| 20260505060218 | 0 | 271 | 0.0 | 0.0 | 0.00 | 0.00 | 0.00 | 1021.1 | |
| 20260505055713 | 0 | 264 | 0.0 | 0.0 | 0.00 | 0.00 | 0.00 | 1021.1 | |
| 20260505055209 | 0 | 276 | 0.0 | 0.0 | 0.00 | 0.00 | 0.00 | 1021.0 | |
| 20260505054707 | 0 | 288 | 0.0 | 0.0 | 0.00 | 0.00 | 0.00 | 1021.1 | |
| 20260505054205 | 0 | 265 | 0.0 | 0.0 | 0.00 | 0.00 | 0.00 | 1021.1 | |
| 20260505053703 | 0 | 255 | 0.0 | 0.0 | 0.00 | 0.00 | 0.00 | 1021.2 | |
| 20260505053159 | 0 | 271 | 0.0 | 0.0 | 0.00 | 0.00 | 0.00 | 1021.3 | |
| 20260505052655 | 0 | 315 | 0.0 | 0.0 | 0.00 | 0.00 | 0.00 | 1021.4 | |
| 20260505052147 | 0 | 287 | 0.0 | 0.0 | 0.00 | 0.00 | 0.00 | 1021.1 | |
| 20260505051644 | 0 | 268 | 0.0 | 0.0 | 0.00 | 0.00 | 0.00 | 1021.3 | |
| 20260505051142 | 0 | 255 | 0.0 | 0.0 | 0.00 | 0.00 | 0.00 | 1021.5 | |
| 20260505050640 | 0 | 251 | 0.0 | 0.0 | 0.00 | 0.00 | 0.00 | 1021.3 | |
| 20260505050138 | 0 | 277 | 0.0 | 0.0 | 0.00 | 0.00 | 0.00 | 1021.5 | |
| 20260505041607 | 0 | 266 | 0.0 | 0.0 | 0.00 | 0.00 | 0.00 | 1022.1 | |
| 20260505041105 | 0 | 275 | 0.0 | 0.0 | 0.00 | 0.00 | 0.00 | 1021.9 | |
| 20260505040602 | 0 | 278 | 0.0 | 0.0 | 0.00 | 0.00 | 0.00 | 1021.8 | |
| 20260505040059 | 0 | 275 | 0.0 | 0.0 | 0.00 | 0.00 | 0.00 | 1022.1 | |
| 20260505035555 | 0 | 279 | 0.0 | 0.0 | 0.00 | 0.22 | 0.22 | 1022.1 | |
| 20260505035051 | 0 | 269 | 0.0 | 0.0 | 0.00 | 0.22 | 0.22 | 1022.1 | |
| 20260505034548 | 0 | 267 | 0.0 | 0.0 | 0.00 | 0.22 | 0.22 | 1022.0 | |
| 20260505034045 | 0 | 279 | 0.0 | 0.0 | 0.00 | 0.22 | 0.22 | 1022.3 | |
| 20260505033542 | 0 | 262 | 0.0 | 0.0 | 0.00 | 0.22 | 0.22 | 1022.4 | |
| 20260505033040 | 0 | 267 | 0.0 | 0.0 | 0.00 | 0.22 | 0.22 | 1022.3 | |
| 20260505032538 | 0 | 260 | 0.0 | 0.0 | 0.00 | 0.22 | 0.22 | 1022.2 | |
| 20260505032034 | 0 | 275 | 0.0 | 0.0 | 0.00 | 0.22 | 0.22 | 1022.0 | |
| 20260505031532 | 0 | 273 | 0.0 | 0.0 | 0.00 | 0.22 | 0.22 | 1022.4 | |
| 20260505031028 | 0 | 266 | 0.0 | 0.0 | 0.00 | 0.22 | 0.22 | 1022.1 | |
| 20260505030525 | 0 | 272 | 0.0 | 0.0 | 0.00 | 0.22 | 0.22 | 1022.1 | |
| 20260505030021 | 0 | 286 | 0.0 | 0.0 | 0.00 | 0.22 | 0.22 | 1021.9 | |
| 20260505025517 | 0 | 274 | 0.0 | 0.0 | 0.00 | 0.22 | 0.22 | 1022.1 | |
| 20260505025016 | 0 | 259 | 0.0 | 0.0 | 0.00 | 0.22 | 0.22 | 1021.9 | |
| 20260505024512 | 0 | 280 | 0.0 | 0.0 | 0.00 | 0.22 | 0.22 | 1022.2 | |
| 20260505024009 | 0 | 268 | 0.0 | 0.0 | 0.00 | 0.22 | 0.22 | 1022.1 | |
| 20260505023506 | 0 | 273 | 0.0 | 0.0 | 0.00 | 0.22 | 0.22 | 1022.2 | |
| 20260505023004 | 0 | 265 | 0.0 | 0.0 | 0.00 | 0.22 | 0.22 | 1022.0 | |
| 20260505022502 | 0 | 268 | 0.0 | 0.0 | 0.00 | 0.22 | 0.22 | 1022.3 | |
| 20260505021959 | 0 | 191 | 0.0 | 0.0 | 0.00 | 0.22 | 0.22 | 1022.1 | |
| 20260505021455 | 0 | 232 | 0.0 | 0.0 | 0.00 | 0.22 | 0.22 | 1021.8 | |
| 20260505020950 | 0 | 243 | 0.0 | 0.0 | 0.00 | 0.22 | 0.22 | 1022.0 | |
| 20260505020445 | 0 | 304 | 0.0 | 0.0 | 0.00 | 0.22 | 0.22 | 1022.1 | |
| 20260505015943 | 0 | 228 | 0.0 | 0.0 | 0.00 | 0.22 | 0.22 | 1022.0 | |
| 20260505015441 | 0 | 250 | 0.0 | 0.0 | 0.00 | 0.22 | 0.22 | 1022.0 | |
| 20260505014937 | 0 | 227 | 0.0 | 0.0 | 0.00 | 0.22 | 0.22 | 1022.0 | |
| 20260505014434 | 0 | 264 | 0.0 | 0.0 | 0.00 | 0.22 | 0.22 | 1022.0 | |
| 20260505013931 | 0 | 138 | 0.0 | 0.0 | 0.02 | 0.22 | 0.22 | 1021.9 | |
| 20260505013428 | 0 | 168 | 1.0 | 2.0 | 0.50 | 0.22 | 0.22 | 1021.8 | |
| 20260505012926 | 0 | 228 | 0.0 | 0.0 | 0.69 | 0.22 | 0.22 | 1021.8 | |
| 20260505012424 | 0 | 233 | 0.0 | 0.0 | 0.19 | 0.14 | 0.14 | 1021.6 | |
| 20260505011920 | 0 | 261 | 0.0 | 0.0 | 0.00 | 0.11 | 0.11 | 1021.7 | |
| 20260505011416 | 0 | 272 | 0.0 | 0.0 | 0.00 | 0.11 | 0.11 | 1021.5 | |
| 20260505010913 | 0 | 222 | 0.0 | 0.0 | 0.00 | 0.11 | 0.11 | 1021.5 | |
| 20260505010409 | 0 | 270 | 0.0 | 0.0 | 0.00 | 0.11 | 0.11 | 1021.4 | |
| 20260505005905 | 0 | 271 | 0.0 | 0.0 | 0.00 | 0.11 | 0.11 | 1021.6 | |
| 20260505005402 | 0 | 283 | 0.0 | 0.0 | 0.00 | 0.11 | 0.11 | 1021.5 | |
| 20260505004900 | 0 | 281 | 0.0 | 0.0 | 0.00 | 0.11 | 0.11 | 1021.5 | |
| 20260505004356 | 0 | 262 | 0.0 | 0.0 | 0.00 | 0.11 | 0.11 | 1021.7 | |
| 20260505003853 | 0 | 258 | 0.0 | 0.0 | 0.00 | 0.11 | 0.11 | 1021.2 | |
| 20260505003350 | 0 | 264 | 0.0 | 0.0 | 0.00 | 0.11 | 0.11 | 1021.4 | |
| 20260505002846 | 0 | 268 | 0.0 | 0.0 | 0.00 | 0.11 | 0.11 | 1021.4 | |
| 20260505002343 | 0 | 274 | 0.0 | 0.0 | 0.00 | 0.11 | 0.11 | 1021.4 | |
| 20260505001842 | 0 | 243 | 0.0 | 0.0 | 0.00 | 0.11 | 0.11 | 1021.3 | |
| 20260505001338 | 0 | 304 | 3.0 | 3.0 | 0.00 | 0.11 | 0.11 | 1021.1 | |
| 20260505000835 | 0 | 269 | 0.0 | 0.0 | 0.00 | 0.11 | 0.11 | 1021.0 | |
| 20260505000333 | 0 | 253 | 0.0 | 0.0 | 0.00 | 0.11 | 0.11 | 1021.1 | |
| 20260504235830 | 0 | 246 | 0.0 | 0.0 | 0.00 | 0.11 | 0.11 | 1021.1 | |
| 20260504235327 | 0 | 274 | 0.0 | 0.0 | 0.00 | 0.11 | 0.11 | 1021.2 | |
| 20260504234823 | 0 | 267 | 0.0 | 0.0 | 0.00 | 0.11 | 0.11 | 1020.9 | |
| 20260504234321 | 0 | 220 | 0.0 | 0.0 | 0.00 | 0.11 | 0.11 | 1021.0 | |
| 20260504233817 | 0 | 252 | 0.0 | 0.0 | 0.00 | 0.11 | 0.11 | 1021.1 | |
| 20260504233313 | 0 | 268 | 0.0 | 0.0 | 0.00 | 0.11 | 0.11 | 1020.9 | |
| 20260504232810 | 0 | 246 | 0.0 | 0.0 | 0.00 | 0.11 | 0.11 | 1020.7 | |
| 20260504232307 | 0 | 287 | 0.0 | 0.0 | 0.00 | 0.11 | 0.11 | 1021.0 | |
| 20260504231804 | 0 | 255 | 0.0 | 0.0 | 0.00 | 0.11 | 0.11 | 1020.6 | |
| 20260504231301 | 0 | 254 | 0.0 | 0.0 | 0.00 | 0.11 | 0.11 | 1020.7 | |
| 20260504230756 | 0 | 238 | 0.0 | 0.0 | 0.00 | 0.11 | 0.11 | 1020.6 | |
| 20260504230254 | 0 | 249 | 0.0 | 0.0 | 0.00 | 0.11 | 0.11 | 1020.7 | |
| 20260504225753 | 0 | 229 | 0.0 | 0.0 | 0.00 | 0.11 | 0.11 | 1020.7 | |
| 20260504225249 | 0 | 244 | 0.0 | 0.0 | 0.00 | 0.11 | 0.11 | 1020.5 | |
| 20260504224746 | 0 | 247 | 0.0 | 0.0 | 0.00 | 0.11 | 0.11 | 1020.2 | |
| 20260504224243 | 0 | 229 | 0.0 | 0.0 | 0.00 | 0.11 | 0.11 | 1020.5 | |
| 20260504223740 | 0 | 237 | 0.0 | 0.0 | 0.00 | 0.11 | 0.11 | 1020.3 | |
| 20260504223235 | 0 | 221 | 0.0 | 0.0 | 0.00 | 0.11 | 0.11 | 1020.5 | |
| 20260504222732 | 0 | 235 | 0.0 | 0.0 | 0.00 | 0.11 | 0.11 | 1020.2 | |
| 20260504222229 | 0 | 241 | 0.0 | 0.0 | 0.00 | 0.11 | 0.11 | 1020.2 | |
| 20260504221727 | 0 | 246 | 0.0 | 0.0 | 0.00 | 0.11 | 0.11 | 1020.1 | |
| 20260504221223 | 0 | 221 | 0.0 | 0.0 | 0.00 | 0.11 | 0.11 | 1020.3 | |
| 20260504220720 | 0 | 209 | 0.0 | 0.0 | 0.00 | 0.11 | 0.11 | 1020.1 | |
| 20260504220217 | 0 | 185 | 0.0 | 0.0 | 0.00 | 0.11 | 0.11 | 1020.2 | |
| 20260504215714 | 0 | 232 | 0.0 | 1.0 | 0.00 | 0.11 | 0.11 | 1019.9 | |
| 20260504215211 | 0 | 89 | 7.0 | 9.0 | 0.00 | 0.11 | 0.11 | 1020.0 | |
| 20260504214706 | 0 | 211 | 0.0 | 0.0 | 0.00 | 0.11 | 0.11 | 1020.1 | |
| 20260504214203 | 0 | 164 | 0.0 | 0.0 | 0.00 | 0.11 | 0.11 | 1019.9 | |
| 20260504213700 | 0 | 185 | 0.0 | 0.0 | 0.00 | 0.11 | 0.11 | 1020.0 | |
| 20260504213157 | 0 | 212 | 0.0 | 0.0 | 0.09 | 0.11 | 0.11 | 1020.1 | |
| 20260504212653 | 0 | 112 | 0.0 | 1.0 | 0.12 | 0.11 | 0.11 | 1020.0 | |
| 20260504212150 | 0 | 147 | 0.0 | 0.0 | 0.19 | 0.10 | 0.10 | 1019.9 | |
| 20260504211647 | 0 | 129 | 2.0 | 5.0 | 0.12 | 0.09 | 0.09 | 1019.8 | |
| 20260504211143 | 0 | 107 | 1.0 | 3.0 | 0.00 | 0.07 | 0.07 | 1019.7 | |
| 20260504210642 | 0 | 211 | 2.0 | 6.0 | 0.00 | 0.07 | 0.07 | 1019.6 | |
| 20260504210137 | 0 | 118 | 0.0 | 2.0 | 0.00 | 0.07 | 0.07 | 1019.3 | |
| 20260504205635 | 0 | 96 | 0.0 | 0.0 | 0.00 | 0.07 | 0.07 | 1019.6 | |
| 20260504205132 | 0 | 186 | 0.0 | 0.0 | 0.07 | 0.07 | 0.07 | 1019.6 | |
| 20260504204631 | 0 | 124 | 1.0 | 2.0 | 0.07 | 0.07 | 0.07 | 1019.4 | |
| 20260504204129 | 0 | 187 | 0.0 | 0.0 | 0.00 | 0.06 | 0.06 | 1019.3 | |
| 20260504203628 | 0 | 191 | 0.0 | 0.0 | 0.00 | 0.06 | 0.06 | 1019.4 | |
| 20260504203126 | 0 | 248 | 0.0 | 0.0 | 0.00 | 0.06 | 0.06 | 1019.5 | |
| 20260504202625 | 0 | 149 | 0.0 | 0.0 | 0.02 | 0.06 | 0.06 | 1019.7 | |
| 20260504202122 | 0 | 237 | 0.0 | 0.0 | 0.07 | 0.06 | 0.06 | 1019.8 | |
| 20260504201619 | 0 | 203 | 0.0 | 0.0 | 0.05 | 0.06 | 0.06 | 1019.9 | |
| 20260504201117 | 0 | 201 | 0.0 | 0.0 | 0.00 | 0.05 | 0.05 | 1019.8 | |
| 20260504200615 | 0 | 233 | 0.0 | 0.0 | 0.00 | 0.05 | 0.05 | 1019.7 | |
| 20260504200110 | 0 | 195 | 0.0 | 0.0 | 0.00 | 0.05 | 0.05 | 1019.8 | |
| 20260504195607 | 0 | 205 | 0.0 | 0.0 | 0.00 | 0.05 | 0.05 | 1019.6 | |
| 20260504195103 | 0 | 249 | 0.0 | 1.0 | 0.05 | 0.05 | 0.05 | 1019.9 | |
| 20260504194600 | 0 | 220 | 3.0 | 5.0 | 0.21 | 0.05 | 0.05 | 1019.8 | |
| 20260504194055 | 0 | 239 | 6.0 | 9.0 | 0.24 | 0.04 | 0.04 | 1019.9 | |
| 20260504193552 | 0 | 156 | 10.0 | 13.0 | 0.02 | 0.00 | 0.00 | 1020.1 | |
| 20260504193050 | 0 | 177 | 7.0 | 10.0 | 0.00 | 0.00 | 0.00 | 1020.0 | |
| 20260504192549 | 0 | 132 | 6.0 | 8.0 | 0.00 | 0.00 | 0.00 | 1019.9 | |
| 20260504192046 | 0 | 124 | 6.0 | 8.0 | 0.00 | 0.00 | 0.00 | 1019.6 | |
| 20260504191544 | 0 | 138 | 12.0 | 15.0 | 0.00 | 0.00 | 0.00 | 1019.5 | |
| 20260504191040 | 0 | 147 | 9.0 | 14.0 | 0.00 | 0.00 | 0.00 | 1020.1 | |
| 20260504190536 | 0 | 104 | 7.0 | 10.0 | 0.00 | 0.00 | 0.00 | 1020.0 | |
| 20260504190032 | 0 | 124 | 14.0 | 17.0 | 0.00 | 0.00 | 0.00 | 1019.8 | |
| 20260504185530 | 0 | 94 | 11.0 | 14.0 | 0.00 | 0.00 | 0.00 | 1020.1 | |
| 20260504185026 | 0 | 129 | 12.0 | 14.0 | 0.00 | 0.00 | 0.00 | 1020.0 | |
| 20260504184521 | 0 | 112 | 8.0 | 14.0 | 0.00 | 0.00 | 0.00 | 1019.9 | |
| 20260504184017 | 0 | 103 | 10.0 | 13.0 | 0.00 | 0.00 | 0.00 | 1020.2 | |
| 20260504183515 | 0 | 104 | 6.0 | 8.0 | 0.00 | 0.00 | 0.00 | 1020.0 | |
| 20260504183013 | 0 | 134 | 11.0 | 14.0 | 0.00 | 0.00 | 0.00 | 1020.2 | |
| 20260504182509 | 0 | 151 | 6.0 | 8.0 | 0.00 | 0.00 | 0.00 | 1020.3 | |
| 20260504182006 | 0 | 110 | 11.0 | 15.0 | 0.00 | 0.00 | 0.00 | 1020.4 | |
| 20260504181503 | 0 | 136 | 10.0 | 13.0 | 0.00 | 0.00 | 0.00 | 1020.3 | |
| 20260504181002 | 0 | 120 | 2.0 | 3.0 | 0.00 | 0.00 | 0.00 | 1020.3 | |
| 20260504180501 | 0 | 86 | 5.0 | 7.0 | 0.00 | 0.00 | 0.00 | 1020.3 | |
| 20260504175958 | 0 | 147 | 7.0 | 7.0 | 0.00 | 0.00 | 0.00 | 1020.3 | |
| 20260504175455 | 0 | 148 | 8.0 | 11.0 | 0.00 | 0.00 | 0.00 | 1020.5 | |
| 20260504174953 | 0 | 126 | 11.0 | 15.0 | 0.00 | 0.00 | 0.00 | 1020.8 | |
| 20260504174450 | 0 | 109 | 7.0 | 9.0 | 0.00 | 0.00 | 0.00 | 1020.8 | |
| 20260504173947 | 0 | 87 | 8.0 | 13.0 | 0.00 | 0.00 | 0.00 | 1020.8 | |
| 20260504173443 | 0 | 149 | 14.0 | 15.0 | 0.00 | 0.00 | 0.00 | 1020.9 | |
| 20260504172941 | 0 | 154 | 5.0 | 7.0 | 0.00 | 0.00 | 0.00 | 1020.6 | |
| 20260504172437 | 0 | 111 | 7.0 | 10.0 | 0.00 | 0.00 | 0.00 | 1020.8 | |
| 20260504171934 | 0 | 101 | 5.0 | 14.0 | 0.00 | 0.00 | 0.00 | 1021.0 | |
| 20260504171431 | 0 | 116 | 9.0 | 14.0 | 0.00 | 0.00 | 0.00 | 1021.1 | |
| 20260504170928 | 0 | 96 | 7.0 | 9.0 | 0.00 | 0.00 | 0.00 | 1021.1 | |
| 20260504170424 | 0 | 139 | 11.0 | 14.0 | 0.00 | 0.00 | 0.00 | 1021.1 | |
| 20260504160343 | 0 | 93 | 1.0 | 8.0 | 0.00 | 0.00 | 0.00 | 1022.0 | |
| 20260504150808 | 0 | 120 | 6.0 | 10.0 | 0.00 | 0.00 | 0.00 | 1021.9 | |
| 20260504150304 | 0 | 103 | 13.0 | 15.0 | 0.00 | 0.00 | 0.00 | 1021.8 | |
| 20260504141235 | 0 | 55 | 0.0 | 1.0 | 0.00 | 0.00 | 0.00 | 1021.9 | |
| 20260504140731 | 0 | 75 | 4.0 | 6.0 | 0.00 | 0.00 | 0.00 | 1021.9 | |
| 20260504140226 | 0 | 114 | 7.0 | 10.0 | 0.00 | 0.00 | 0.00 | 1021.9 | |
| 20260504130655 | 0 | 111 | 6.0 | 8.0 | 0.00 | 0.00 | 0.00 | 1022.3 |